This demonstration page uses our WeatherBlox Daily Observations layout. Learn more.

Left ArrowRight Arrow

36.19886, -115.1175

Hourly Observations for October 25, 2020

Temp ( °F °C ) Dew Point ( °F °C ) Humidity (%) Winds ( mph kmh ) Pressure ( in mb ) Visibility ( mi km ) Precip ( " mm )
12:53 am 00:53 Clear 74 23.3 32 0 21 21 SE 12 19 29.68 1005 10 16 0.00 0.00
1:53 am 01:53 Clear 73 22.8 33 0.6 23 23 S 10 17 29.66 1004 10 16 0.00 0.00
2:53 am 02:53 Clear 74 23.3 31 -0.6 20 20 SSW 10 17 29.67 1005 10 16 0.00 0.00
3:53 am 03:53 Clear 71 21.7 32 0 24 24 SSE 14 22 29.65 1004 10 16 0.00 0.00
4:53 am 04:53 Clear 69 20.6 29 -1.7 22 22 SW 7 11 29.63 1004 10 16 0.00 0.00
5:53 am 05:53 Clear 64 17.8 30 -1.1 28 28 NW 10 17 29.65 1004 10 16 0.00 0.00
6:53 am 06:53 Clear 62 16.7 31 -0.6 31 31 WNW 8 13 29.65 1004 10 16 0.00 0.00
7:53 am 07:53 Sunny 63 17.2 31 -0.6 30 30 WNW 8 13 29.67 1005 10 16 0.00 0.00
8:53 am 08:53 Sunny 66 18.9 30 -1.1 26 26 E 5 7 29.66 1005 10 16 0.00 0.00
9:53 am 09:53 Sunny 73 22.8 32 0 22 22 VRB 3 6 29.66 1004 10 16 0.00 0.00
10:53 am 10:53 Sunny 76 24.4 30 -1.1 18 18 WNW 14 22 29.65 1004 10 16 0.00 0.00
11:53 am 11:53 Sunny 79 26.1 29 -1.7 16 16 WNW 20 31 29.62 1003 10 16 0.00 0.00
12:53 pm 12:53 Sunny 80 26.7 29 -1.7 15 15 NW 21 33 29.60 1002 10 16 0.00 0.00
1:53 pm 13:53 Sunny 81 27.2 28 -2.2 14 14 NW 23 37 29.57 1001 10 16 0.00 0.00
2:53 pm 14:53 Sunny 81 27.2 28 -2.2 14 14 NW 22 35 29.56 1001 10 16 0.00 0.00
3:53 pm 15:53 Sunny with Light Rain 78 25.6 22 -5.6 12 12 NW 31 50 29.57 1001 10 16 0.00 0.00
4:53 pm 16:53 Sunny with Light Rain 74 23.3 18 -7.8 12 12 NW 31 50 29.61 1003 10 16 0.00 0.00
5:53 pm 17:53 Clear with Light Rain 71 21.7 11 -11.7 10 10 NW 30 48 29.64 1004 10 16 0.00 0.00
6:53 pm 18:53 Partly Cloudy with Light Rain 69 20.6 17 -8.3 14 14 NNW 28 44 29.69 1005 10 16 0.00 0.00
7:53 pm 19:53 Partly Cloudy with Light Rain 66 18.9 7 -13.9 10 10 NNW 25 41 29.75 1007 10 16 0.00 0.00
8:53 pm 20:53 Cloudy with Light Rain 62 16.7 -2 -18.9 7 7 NNW 24 39 29.81 1010 10 16 0.00 0.00
9:53 pm 21:53 Mostly Cloudy with Light Rain 59 15 -6 -21.1 7 7 NW 35 56 29.85 1011 10 16 0.00 0.00
10:35 pm 22:35 Clear 56 13.3 2 -16.7 11 11 NE 6 9 29.93 1013 10 16 0.00 0.00
10:53 pm 22:53 Clear 55 12.8 0 -17.8 10 10 NNW 18 30 29.97 1015 10 16 0.00 0.00
11:18 pm 23:18 Clear 54 12.2 4 -15.6 13 13 NNE 17 28 29.98 1015 10 16 0.00 0.00
11:53 pm 23:53 Clear 52 11.1 6 -14.4 15 15 N 23 37 30.01 1016 10 16 0.00 0.00

Powered by AerisWeather